Ships in port

Last updated: 16-06-2019 09:20

Ship name Call sign IMO Agent Date Time Berth Arrived From Purpose of call Cargo Loaded in/for Homeport ETD Date ETD Time GT Deadweight Width (BR) DR arr. Length (LOA)
CLEMENTINE ONDK 9125384 Blue Water Shipping A/S 16-06-2019 07:25 814 Zeebrugge Discharge/load Trailers ANTWERPEN 16-06-2019 12:00 23986 9655 25,6 6,5 162,5
REYKJANES OVSI2 7392311 Regnskabsbureauet ApS 16-06-2019 00:40 59 DK OFFSHORE INSTALLATIONS Crew change/Provion/Bunkers ESBJERG 16-06-2019 15:00 442 427 8,3 4,5 39,8
SC ASTREA C6ZL8 8917895 Sea-Cargo A/S 15-06-2019 19:05 709 Tananger Discharge/load Trailers NASSAU, NEW PROVIDENCE I 16-06-2019 12:00 9528 6672 21,4 6,7 129,1
ARRIVER OWKJ2 9669005 Northern Offshore Services A/S 15-06-2019 18:50 24 DK OFFSHORE INSTALLATIONS Passenger call Passengers ESBJERG 16-06-2019 07:22 131 55 8,0 2,1 22,0
KATJA (E 35) OXEL 9999999 Jan Magnussen / Kutter Katja E 35 15-06-2019 16:30 12 OTHER DENMARK Discharge Shrimps ESBJERG 16-06-2019 18:22 61 0 5,8 2,5 17,0
ESVAGT BETA OUJM2 8817746 Esvagt A/S 15-06-2019 14:45 302 DK OFFSHORE INSTALLATIONS Crew change/Provion/Bunkers ESBJERG 18-06-2019 12:22 2360 1157 14,6 5,3 76,6
ISLAND PATRIOT LMWS 9325738 Copco A/S 15-06-2019 11:45 604 Ijmuiden (NLIJM) Load Chemicals ÅLESUND 18-06-2019 07:00 5800 4843 19,2 6,5 86,2
ROTRA VENTE PBPH 9805568 Jutlandia Terminal A/S 14-06-2019 22:55 711 Cuxhaven Discharge/load Wind mill equipment WERKENDAM 15-06-2019 19:00 6200 9100 21,4 6,6 141,6
SC SAPPHIRE MCQL6 9999999 North Sea Hagland Shipbrokers ApS. 14-06-2019 17:00 4 DK OFFSHORE INSTALLATIONS Passenger call Passengers 15-06-2019 07:22 91 0 7,0 2,0 24,0
ELISABETH M OXRF2 4400208 KEM-Offshore ApS 14-06-2019 16:40 21 DK OFFSHORE INSTALLATIONS Passenger call Passengers ESBJERG 15-06-2019 07:22 66 0 4,9 2,1 20,8
SAMANTHA (RI 159) OUVG 9999999 Partrederiet RI 159 v/Nicklas Davidsen 14-06-2019 07:35 12 OTHER DENMARK Discharge Shrimps HVIDE SANDE 14-06-2019 19:22 61 0 5,8 2,5 17,2
IDA SARA (E 710) OYHO 9999999 Fiskeriselskabet Ida Sara E 710 ApS 14-06-2019 07:30 12 OTHER DENMARK Discharge Shrimps ESBJERG 14-06-2019 19:00 62 0 5,8 2,5 17,2
DITTE JUUL (RI 562) OZWK 9999999 Kutter Ditte Juul Ri 562 14-06-2019 07:10 12 OTHER DENMARK Discharge Shrimps HVIDE SANDE 14-06-2019 12:22 58 0 5,5 2,5 17,2
WIND SUPPLIER OWBZ2 9566148 Ørsted Horns Rev 2 A/S 13-06-2019 18:15 24 DK OFFSHORE INSTALLATIONS Passenger call Passengers ESBJERG 14-06-2019 04:55 170 0 6,9 2,1 32,2
EDDA FJORD LACU8 9246114 Niels Winther Maritime ApS 12-06-2019 23:15 206 OTHER DENMARK Crew change/Provion/Bunkers Haugesund 30-06-2019 12:00 5886 6600 22,0 6,2 98,2
KAREN M OWFL2 8228830 KEM-Offshore ApS 12-06-2019 20:20 23 OTHER DENMARK Crew change/Provion/Bunkers Esbjerg 15-06-2019 16:22 108 0 6,0 2,1 26,9
MUNIN EXPLORER C4XX2 8915782 Smedegaarden A/S 12-06-2019 17:00 87 Austevoll Repair LIMASSOL 31-07-2019 22:22 2387 970 14,0 5,0 60,3
NORDSØEN OXGD 6804408 KEM-Offshore ApS 12-06-2019 14:00 52 DK OFFSHORE INSTALLATIONS Crew change/Provion/Bunkers ESBJERG 22-06-2019 20:22 475 0 10,0 4,0 52,9
SOFIA KAUL (E 41) OVPT 9999999 KAUL ApS 12-06-2019 08:15 12 OTHER DENMARK Discharge Shrimps Esbjerg 13-06-2019 18:22 79 0 5,8 2,5 20,0
SCOTIA (E 567) OZYG 9999999 Tony Divers 12-06-2019 08:15 12 OTHER DENMARK Discharge Shrimps ESBJERG 13-06-2019 18:22 69 0 5,8 2,5 17,8
BRITANNIA SEAWAYS OZTS2 9153032 DFDS A/S 12-06-2019 07:15 112 OTHER DENMARK Repair KØBENHAVN 19-06-2019 21:30 24196 11089 26,0 6,1 197,5
RUNE EGHOLM (E 426) OYCG 9999999 Fiskeriselskabet Rune Egholm E 426 11-06-2019 08:40 12 OTHER DENMARK Discharge Shrimps ESBJERG 13-06-2019 18:22 67 0 5,9 2,5 18,0
CONNECTOR EXPRESS OYOJ2 9244568 Niels Winther Maritime ApS 10-06-2019 09:30 107 Emden Temporary laid up FREDERICIA 24-06-2019 04:22 4030 4505 19,0 5,6 90,2
LYØ (MHV 904) OVLD 219000161 Lokal Støtte Element Varde 09-06-2019 21:35 307 Cuxhaven Environmental protection Esbjerg 30-06-2019 16:22 100 0 5,6 3,6 27,2
SØLØVEN OXQL2 8862569 O.S. Energy GmbH 08-06-2019 05:25 86 OFFSHORE, NORTH SEA Crew change/Provion/Bunkers ESBJERG 15-06-2019 22:22 390 0 8,5 3,5 46,0
ISLAND CENTURION 3YHG 9579470 Blue Water Shipping A/S 06-06-2019 15:30 115 DK OFFSHORE INSTALLATIONS Repair AALESUND 15-06-2019 16:22 6397 4788 20,0 6,6 93,0
BLUE ARIES OWRC2 8401963 North Sea Hagland Shipbrokers ApS. 04-06-2019 19:30 501 Cuxhaven Await orders FÅBORG 30-06-2019 19:22 2887 2903 17,6 0,0 75,4
MARGRETHE M OVOR2 9999999 KEM-Offshore ApS 02-06-2019 15:45 21 DK OFFSHORE INSTALLATIONS Passenger call Passengers ESBJERG 14-06-2019 07:22 49 0 5,0 2,0 19,8
BLUE TERN 2FEP5 9598737 Blue Water Shipping A/S 01-06-2019 15:00 801 DK OFFSHORE INSTALLATIONS Load Wind mill equipment Dover 25-06-2019 22:22 19697 11013 50,0 5,4 151,0
ESVAGT SIGMA OXOA2 9235309 Esvagt A/S 01-06-2019 10:30 90 DK OFFSHORE INSTALLATIONS Repair ESBJERG 14-06-2019 18:00 830 600 11,0 5,8 47,1
STATHAV 9 FTJ1312 9999999 Nordic Marine Oil A/S 01-06-2019 00:05 14 Esbjerg Bunker another vessel KØBENHAVN 30-06-2019 23:55 19 0 4,3 1,5 12,4
CICALA MFBZ4 8891443 M/V ST. CICALA / John Cefferty 01-06-2019 00:05 60 Esbjerg Temporary laid up MANCHESTER 30-06-2019 23:55 270 0 8,5 1,5 30,7
KIRSTEN GULLEV OU5826 9999999 Nordic Marine Oil A/S 01-06-2019 00:05 14 OTHER DENMARK Bunker another vessel ESBJERG 30-06-2019 23:55 21 70 4,3 1,5 14,4
FØNIKS SUPPORTER OUBJ2 8661020 Bunker One A/S 01-06-2019 00:05 7 Esbjerg Bunker another vessel københavn 30-06-2019 23:55 226 0 9,0 1,5 25,2
STATHAV 22 OWGA2 9999999 Nordic Marine Oil A/S 01-06-2019 00:05 14 Esbjerg Bunker another vessel Skagen 30-06-2019 23:55 131 0 6,5 3,5 27,4
SVITZER HELIOS OWLX2 7321659 EM. Z. Svitzer A/S 01-06-2019 00:05 307 Esbjerg Towing ESBJERG 30-06-2019 23:55 304 650 9,8 4,7 32,9
SOUNDLINK OXFT2 9999999 B B Towing og Diving A/S 01-06-2019 00:05 65 Esbjerg Towing Esbjerg 30-06-2019 23:55 30 0 4,2 1,5 13,0
FENJA OYIQ 9189378 Molslinjen A/S 01-06-2019 00:05 209 Nordby Havn, Fanø Passenger call Passengers - cars ESBJERG 30-06-2019 23:55 751 230 13,8 2,5 49,9
MENJA OYIU 9189380 Molslinjen A/S 01-06-2019 00:05 300 Nordby Havn, Fanø Passenger call Passengers - cars ESBJERG 30-06-2019 23:55 751 230 13,8 2,5 49,9
SONDERHO OYVH 8946779 Molslinjen A/S 01-06-2019 00:05 209 Nordby Havn, Fanø Passenger call Passengers ESBJERG 30-06-2019 23:55 93 30 6,0 1,5 25,0
SIGYN OZHB2 9114361 EM. Z. Svitzer A/S 01-06-2019 00:05 306 OTHER DENMARK Towing Kalundborg 30-06-2019 23:55 485 311 10,8 5,0 33,8
SIF R PIVA 7424358 Rohde Nielsen A/S 31-05-2019 01:15 999 Svendborg Dredging ZEIST 15-06-2019 22:22 1693 2700 13,8 3,0 80,0
TOSTE R OVPK 9042087 Rohde Nielsen A/S 29-05-2019 03:50 999 OTHER DENMARK Dredging ESBJERG 15-06-2019 22:22 556 632 10,5 2,5 45,7
ISLAND CAPTAIN 3YHO 9579482 Blue Water Shipping A/S 22-05-2019 19:10 710 DK OFFSHORE INSTALLATIONS Repair ÅLESUND 15-06-2019 22:22 4841 4500 20,0 6,0 93,0
PACIFIC ORCA 5BRE3 9601326 Blue Water Shipping A/S 18-05-2019 04:00 76 DK OFFSHORE INSTALLATIONS Demobilisation Limassol 30-06-2019 22:22 24586 13155 49,0 5,5 161,3
SEAJACKS SCYLLA 3FSA3 9698939 Seajacks International Limited 21-04-2019 05:40 84 DK OFFSHORE INSTALLATIONS Demobilisation Panama 30-06-2019 23:55 23641 18907 50,0 8,8 139,0
BLUE ORCA WDG8787 9670341 Jutlandia Terminal A/S 11-04-2019 10:30 509 OTHER DENMARK Load Chemicals Galliano, LA 30-06-2019 22:22 7115 5065 18,3 6,5 94,8
PACIFIC OSPREY 5BUF3 9621704 Swire Blue Ocean 07-04-2019 00:40 117 Rotterdam Demobilisation Limassol 30-06-2019 15:22 24586 13155 49,0 5,5 161,3
BLUE ANTARES OXJJ6 8401949 North Sea Hagland Shipbrokers ApS. 31-03-2019 08:05 309 Eemshaven (NLEEM) Crew change/Provion/Bunkers Faaborg 30-06-2019 22:22 2887 2800 18,5 5,5 76,4
RAN XPKY 7043829 Thor P/F Ltd. 18-03-2019 11:20 84 Thorshavn Temporary laid up THORSHAVN 30-06-2019 23:59 1100 1072 11,0 5,1 60,1
DI-JE (E 61) OWFZ 5128062 Partsrederiet E 61 Di-Je 03-02-2019 17:30 12 OTHER DENMARK Discharge Shrimps ESBJERG 30-06-2019 19:22 48 0 6,5 2,5 20,0
HEIMDAL OXQN2 9999999 KEM-Offshore ApS 10-10-2018 14:00 21 DK OFFSHORE INSTALLATIONS Passenger call Passengers ESBJERG 30-06-2019 07:22 19 10 5,0 1,5 16,1
MADOG V4DR 6615467 Malta Towage Limited 14-09-2018 14:00 89 Esbjerg Temporary laid up BASSETERRE - ST KITTS 30-06-2019 23:55 185 0 7,2 3,7 25,7
KURBERG OW2361 8600064 Thor P/F Ltd. 16-07-2018 18:35 88 Other ports, Færø Islands Temporary laid up Torshavn 31-12-2019 23:55 488 488 8,9 3,5 38,6
TORSVIK OZ2029 7807316 Thor P/F Ltd. 13-07-2018 09:30 88 Las Palmas Temporary laid up Hosvik 31-12-2019 23:55 370 0 8,5 3,6 39,2
COLGA 9V9536 8751473 Dixstone Holding LtD 24-05-2018 06:22 78 OTHER DENMARK Repair Singapore 30-06-2019 23:59 9352 0 86,3 9,8 74,7
SALLING OUIG2 7431571 Salling Offshore-Service ApS 21-05-2018 18:55 59 OTHER DENMARK Crew change/Provion/Bunkers Esbjerg 30-06-2019 23:22 370 300 7,2 4,6 37,9
MAERSK GIANT OU2465 8415768 Blue Water Shipping A/S 10-11-2016 11:00 84 OTHER DENMARK Temporary laid up SVENDBORG 30-06-2019 23:59 16325 0 95,6 8,2 80,8
DIGI OVXM 9999999 Esbjerg Bedding ApS 31-01-2015 22:10 66 Hvide Sande Shelter LEMVIG 31-12-2019 23:59 29 0 4,2 1,0 15,5